Cortland, IL

5:13 PM CDT on September 25, 2016 (GMT -0500)
De Kalb Taylor Municipal

Weather History for KDKB - April, 2013

Change the Weather History Date:

Monday, April 22, 2013

  Actual Average (KARR) Record (KARR)
Temperature  
Mean Temperature 48 °F 51 °F  
Max Temperature 64 °F 62 °F 82 °F (2007)
Min Temperature 33 °F 39 °F 29 °F (2015)
Degree Days  
Heating Degree Days 17 14  
Month to date heating degree days 394  
Since 1 July heating degree days 6402  
Cooling Degree Days 0 0  
Month to date cooling degree days 0  
Year to date cooling degree days 0  
Moisture  
Dew Point 34 °F    
Average Humidity 57    
Maximum Humidity 87    
Minimum Humidity 32    
Precipitation  
Precipitation 0.00 in 0.10 in 2.53 in (1999)
Month to date precipitation 2.27  
Year to date precipitation 7.59  
Sea Level Pressure  
Sea Level Pressure 30.18 in    
Wind  
Wind Speed 13 mph (SSE)    
Max Wind Speed 18 mph    
Max Gust Speed 23 mph    
Visibility 10 miles    
Events      
T = Trace of Precipitation, MM = Missing Value Source: NWS Daily Summary

Daily Weather History Graph

Daily Weather History Graph

Search for Another Location

Airport or City:

Trip Planner

Search our weather history database for the weather conditions in past years. The results will help you decide how hot, cold, wet, or windy it might be!

Date:

Astronomy

Apr. 22, 2013 Rise Set
Actual Time 6:03 AM CDT 7:43 PM CDT
Civil Twilight 5:33 AM CDT 8:13 PM CDT
Nautical Twilight 4:57 AM CDT 8:49 PM CDT
Astronomical Twilight 4:19 AM CDT 9:28 PM CDT
Moon 4:30 PM CDT (4/22) 4:01 AM CDT (4/22)
Length of Visible Light 14h 39m
Length of Day
13h 40m
Waxing Gibbous, 88% of the Moon is Illuminated
Apr 22
Waxing Gibbous
Apr 25
Full
May 2
Last Quarter
May 9
New
May 17
First Quarter

Hourly Weather History & Observations

Time (CDT) Temp. Windchill Dew Point Humidity Pressure Visibility Wind Dir Wind Speed Gust Speed Precip Events Conditions
12:15 AM 41.4 °F 33.0 °F 32.0 °F 69% 30.29 in 10.0 mi SE 17.3 mph - N/A   Mostly Cloudy
12:35 AM 41.2 °F 33.4 °F 32.2 °F 70% 30.30 in 10.0 mi SE 15.0 mph 21.9 mph N/A   Overcast
12:55 AM 40.6 °F 32.3 °F 32.0 °F 71% 30.29 in 10.0 mi SSE 16.1 mph 21.9 mph N/A   Mostly Cloudy
1:15 AM 40.5 °F 32.5 °F 32.0 °F 72% 30.28 in 10.0 mi SE 15.0 mph - N/A   Mostly Cloudy
1:35 AM 40.1 °F 33.2 °F 32.0 °F 73% 30.29 in 10.0 mi SSE 11.5 mph - N/A   Mostly Cloudy
1:55 AM 39.7 °F 33.2 °F 32.0 °F 74% 30.28 in 10.0 mi SE 10.4 mph - N/A   Mostly Cloudy
2:15 AM 39.2 °F 32.0 °F 32.0 °F 75% 30.28 in 10.0 mi SSE 11.5 mph - N/A   Mostly Cloudy
2:35 AM 37.8 °F 29.8 °F 31.8 °F 79% 30.28 in 10.0 mi SSE 12.7 mph - N/A   Scattered Clouds
2:55 AM 38.3 °F 30.9 °F 31.8 °F 77% 30.27 in 10.0 mi SSE 11.5 mph - N/A   Clear
3:15 AM 37.8 °F 30.2 °F 31.6 °F 79% 30.27 in 10.0 mi SE 11.5 mph - N/A   Scattered Clouds
3:35 AM 37.8 °F 29.8 °F 31.5 °F 78% 30.27 in 10.0 mi SE 12.7 mph - N/A   Scattered Clouds
3:55 AM 37.6 °F 30.5 °F 31.5 °F 79% 30.27 in 10.0 mi SSE 10.4 mph - N/A   Clear
4:15 AM 36.5 °F 28.7 °F 31.1 °F 81% 30.26 in 10.0 mi SSE 11.5 mph - N/A   Clear
4:35 AM 35.6 °F 28.0 °F 30.2 °F 81% 30.26 in 10.0 mi SSE 10.4 mph - N/A   Clear
4:55 AM 36.3 °F 28.9 °F 31.1 °F 81% 30.26 in 10.0 mi SSE 10.4 mph - N/A   Clear
5:15 AM 35.8 °F 28.3 °F 30.7 °F 82% 30.25 in 10.0 mi SSE 10.4 mph - N/A   Clear
5:35 AM 35.6 °F 29.2 °F 30.7 °F 82% 30.26 in 10.0 mi South 8.1 mph - N/A   Clear
5:55 AM 33.8 °F 28.6 °F 30.0 °F 86% 30.27 in 10.0 mi South 5.8 mph - N/A   Clear
6:15 AM 33.8 °F 27.0 °F 30.2 °F 87% 30.26 in 10.0 mi SSE 8.1 mph - N/A   Clear
6:35 AM 35.6 °F 28.0 °F 31.1 °F 84% 30.25 in 10.0 mi SSE 10.4 mph - N/A   Clear
6:55 AM 36.5 °F 29.2 °F 31.6 °F 83% 30.25 in 10.0 mi SSE 10.4 mph - N/A   Clear
7:15 AM 37.8 °F 29.8 °F 32.0 °F 80% 30.25 in 10.0 mi SSE 12.7 mph - N/A   Clear
7:35 AM 39.2 °F 32.0 °F 32.4 °F 76% 30.25 in 10.0 mi SSE 11.5 mph - N/A   Clear
7:55 AM 40.8 °F 34.1 °F 33.3 °F 74% 30.25 in 10.0 mi SSE 11.5 mph - N/A   Clear
8:15 AM 42.6 °F 35.9 °F 33.6 °F 70% 30.25 in 10.0 mi SSE 12.7 mph - N/A   Clear
8:35 AM 44.2 °F 37.6 °F 33.6 °F 66% 30.24 in 10.0 mi SSE 13.8 mph - N/A   Clear
8:55 AM 46.4 °F 40.1 °F 33.8 °F 62% 30.24 in 10.0 mi SSE 15.0 mph - N/A   Clear
9:15 AM 48.0 °F - 34.7 °F 60% 30.25 in 10.0 mi SSE 15.0 mph - N/A   Clear
9:35 AM 50.2 °F - 35.8 °F 58% 30.24 in 10.0 mi South 15.0 mph - N/A   Clear
9:55 AM 51.4 °F - 34.7 °F 53% 30.25 in 10.0 mi South 15.0 mph - N/A   Clear
10:15 AM 52.3 °F - 35.2 °F 52% 30.24 in 10.0 mi South 12.7 mph - N/A   Clear
10:35 AM 53.1 °F - 35.6 °F 52% 30.24 in 10.0 mi South 13.8 mph - N/A   Clear
10:55 AM 55.0 °F - 36.5 °F 50% 30.24 in 10.0 mi SSE 15.0 mph - N/A   Clear
11:15 AM 55.4 °F - 36.3 °F 49% 30.24 in 10.0 mi SSE 10.4 mph - N/A   Clear
11:35 AM 55.9 °F - 37.8 °F 51% 30.24 in 10.0 mi South 12.7 mph - N/A   Clear
11:55 AM 56.8 °F - 37.0 °F 48% 30.23 in 10.0 mi South 11.5 mph 16.1 mph N/A   Clear
12:15 PM 58.5 °F - 37.2 °F 45% 30.23 in 10.0 mi South 11.5 mph 17.3 mph N/A   Clear
12:35 PM 59.5 °F - 36.3 °F 42% 30.21 in 10.0 mi South 11.5 mph 17.3 mph N/A   Clear
12:55 PM 59.7 °F - 36.9 °F 43% 30.20 in 10.0 mi SSE 12.7 mph - N/A   Clear
1:15 PM 60.6 °F - 34.5 °F 38% 30.19 in 10.0 mi SSE 12.7 mph - N/A   Clear
1:35 PM 61.0 °F - 34.5 °F 37% 30.18 in 10.0 mi SSE 15.0 mph 18.4 mph N/A   Clear
1:55 PM 62.1 °F - 34.7 °F 36% 30.16 in 10.0 mi SSE 11.5 mph 19.6 mph N/A   Clear
2:15 PM 62.4 °F - 33.6 °F 34% 30.16 in 10.0 mi SSE 13.8 mph 20.7 mph N/A   Clear
2:35 PM 63.5 °F - 33.8 °F 33% 30.15 in 10.0 mi SSE 17.3 mph - N/A   Clear
2:55 PM 62.8 °F - 32.7 °F 32% 30.13 in 10.0 mi SE 12.7 mph - N/A   Clear
3:15 PM 63.0 °F - 33.4 °F 33% 30.12 in 10.0 mi SE 18.4 mph 21.9 mph N/A   Clear
3:35 PM 63.5 °F - 33.4 °F 33% 30.11 in 10.0 mi SSE 13.8 mph 21.9 mph N/A   Clear
3:55 PM 63.5 °F - 33.4 °F 33% 30.10 in 10.0 mi SSE 17.3 mph - N/A   Clear
4:15 PM 63.5 °F - 32.9 °F 32% 30.10 in 10.0 mi SSE 17.3 mph 21.9 mph N/A   Clear
4:35 PM 63.0 °F - 33.3 °F 33% 30.09 in 10.0 mi SSE 16.1 mph 21.9 mph N/A   Clear
4:55 PM 62.1 °F - 32.2 °F 33% 30.08 in 10.0 mi SSE 17.3 mph 23.0 mph N/A   Clear
5:15 PM 63.0 °F - 33.6 °F 33% 30.07 in 10.0 mi SSE 16.1 mph - N/A   Clear
5:35 PM 62.6 °F - 34.0 °F 34% 30.07 in 10.0 mi SE 15.0 mph - N/A   Clear
5:55 PM 61.2 °F - 34.2 °F 36% 30.07 in 10.0 mi SSE 13.8 mph - N/A   Clear
6:15 PM 61.0 °F - 35.2 °F 38% 30.07 in 10.0 mi SSE 15.0 mph - N/A   Clear
6:35 PM 60.3 °F - 35.1 °F 39% 30.06 in 10.0 mi SSE 15.0 mph - N/A   Clear
6:55 PM 59.4 °F - 35.2 °F 40% 30.06 in 10.0 mi SSE 13.8 mph - N/A   Clear
7:15 PM 57.7 °F - 36.5 °F 45% 30.05 in 10.0 mi SE 12.7 mph 17.3 mph N/A   Clear
7:35 PM 56.3 °F - 36.3 °F 47% 30.05 in 10.0 mi SE 11.5 mph - N/A   Clear
7:55 PM 55.4 °F - 36.5 °F 49% 30.06 in 10.0 mi SE 10.4 mph - N/A   Clear
8:15 PM 54.1 °F - 36.7 °F 52% 30.06 in 10.0 mi SE 10.4 mph - N/A   Clear
8:35 PM 53.6 °F - 36.7 °F 53% 30.05 in 10.0 mi SE 10.4 mph - N/A   Clear
8:55 PM 53.8 °F - 37.4 °F 54% 30.06 in 10.0 mi SE 11.5 mph - N/A   Clear
9:15 PM 52.9 °F - 37.6 °F 56% 30.06 in 10.0 mi SE 10.4 mph - N/A   Clear
9:35 PM 52.3 °F - 37.4 °F 57% 30.06 in 10.0 mi SE 10.4 mph - N/A   Clear
9:55 PM 52.0 °F - 37.6 °F 58% 30.06 in 10.0 mi SE 10.4 mph - N/A   Clear
10:15 PM 52.0 °F - 37.8 °F 58% 30.06 in 10.0 mi SE 10.4 mph - N/A   Scattered Clouds
10:35 PM 52.0 °F - 37.8 °F 58% 30.06 in 10.0 mi SE 11.5 mph - N/A   Mostly Cloudy
10:55 PM 51.8 °F - 38.3 °F 60% 30.05 in 10.0 mi SE 11.5 mph - N/A   Mostly Cloudy
11:15 PM 52.0 °F - 37.8 °F 58% 30.04 in 10.0 mi SE 11.5 mph - N/A   Overcast
11:35 PM 51.8 °F - 37.9 °F 59% 30.04 in 10.0 mi SE 8.1 mph - N/A   Mostly Cloudy
11:55 PM 51.1 °F - 38.3 °F 62% 30.04 in 10.0 mi SE 9.2 mph - N/A   Mostly Cloudy